Regional Weather Roundup
Issued by NWS

Home | Current Version | Previous Version | Text Only | Print | Product List | Glossary Off
Versions: 1 2 3 4 5 6 7 8 9 10 11 12 13 14 15 16 17 18 19 20 21 22 23 24 25 26 27 28 29 30 31 32 33 34 35 36 37 38 39 40 41 42 43 44 45 46 47 48 49 50

000
ASUS44 KMEG 271510
RWRTN
TENNESSEE HOURLY STATE WEATHER ROUNDUP
NATIONAL WEATHER SERVICE MEMPHIS TN
1000 AM CDT SAT MAY 27 2017

TNZ002-004-019-021-049-052-054-088>092-271600-
WEST TENNESSEE

CITY           SKY/WX    TMP DP  RH WIND       PRES   REMARKS
MEMPHIS INTL   CLOUDY    78  73  84 SW10G22   29.93S
NWS MEMPHIS      N/A     77 N/A N/A MISG        N/A
JACKSON        CLOUDY    78  72  81 S14       29.93F
DYERSBURG        N/A    N/A N/A N/A MISG        N/A
COVINGTON      CLOUDY    77  72  83 SW14G21   29.91S
UNION CITY     PTSUNNY   75  68  78 SW9       29.91R
BOLIVAR        CLOUDY    77  72  83 S8G14     29.94S
PARIS          PTSUNNY   75  72  88 W8        29.91R
HUNTINGDON     SUNNY     75  72  88 S14G20    29.90R
LEXINGTON      MOSUNNY   77  68  73 MISG      29.93F
SELMER         CLOUDY    75  68  78 VRB6G12   29.96S
SAVANNAH       CLOUDY    75  68  78 S9        29.96F
$$

TNZ008-025-027-028-033-062-065-066-271600-
NORTH MIDDLE TENNESSEE

CITY           SKY/WX    TMP DP  RH WIND       PRES   REMARKS
NASHVILLE      CLOUDY    74  66  76 S6        29.97S
PORTLAND       MOSUNNY   75  68  78 S14       29.91F
CLARKSVILLE    CLOUDY    72  66  81 S10       29.86F
SMYRNA         CLOUDY    74  66  76 S5        29.99S
COOKEVILLE     CLOUDY    75  66  73 SW8       29.99S
GALLATIN       PTSUNNY   75  68  78 CALM      29.98F
CROSSVILLE     CLOUDY    70  63  78 SW9       30.05S
$$

TNZ061-075-076-078-094-096-097-271600-
SOUTH MIDDLE TENNESSEE

CITY           SKY/WX    TMP DP  RH WIND       PRES   REMARKS
FAYETTEVILLE   MOSUNNY   75  66  73 SW9       30.03R
TULLAHOMA      PTSUNNY   72  63  73 SW8       30.04R
WINCHESTER     PTSUNNY   73  64  73 SW7         N/A
MCMINNVILLE    PTSUNNY   75  66  73 SW9       30.02R
COLUMBIA       SUNNY     72  66  83 SW5       29.97S HAZE
SHELBYVILLE    MOSUNNY   73  66  78 SW9       30.01R
$$

TNZ017-018-042-046-047-271600-
NORTHEAST TENNESSEE

CITY           SKY/WX    TMP DP  RH WIND       PRES   REMARKS
TRI CITIES     CLOUDY    74  63  68 SW6       30.02S
ELIZABETHTON   CLOUDY    75  64  69 W6        30.01S
$$

TNZ012-013-036-069-073-074-271600-
CENTRAL EAST TENNESSEE

CITY           SKY/WX    TMP DP  RH WIND       PRES   REMARKS
KNOXVILLE      CLOUDY    76  63  64 SW15      30.01R
OAK RIDGE      CLOUDY    74  63  68 VRB6      30.02S
DOWNTOWN KNOXV PTSUNNY   75  66  73 W7G18     30.01S
GATLINBURG     PTSUNNY   79  63  57 SW7       30.00R
MORRISTOWN     PTSUNNY   75  64  69 W12G17    30.00S
JACKSBORO      CLOUDY    73  66  78 CALM      30.03S
$$

TNZ083-085-099-271600-
SOUTHEAST TENNESSEE

CITY           SKY/WX    TMP DP  RH WIND       PRES   REMARKS
CHATTANOOGA    PTSUNNY   76  63  64 S9        30.02F
$$

SKY/WX REPORTED AS FAIR MEANS FEW OR NO CLOUDS BELOW
12 THOUSAND FEET.





USA.gov is the U.S. government's official web portal to all federal, state and local government web resources and services.